Noatak, AK

10:43 AM AKST on February 20, 2018 (GMT -0900)
Noatak

Weather History for PAWN - February, 2013

Change the Weather History Date:

Tuesday, February 26, 2013

  Actual Average Record
Temperature  
Mean Temperature -27 °F -  
Max Temperature -16 °F 8 °F 33 °F (2014)
Min Temperature -38 °F -1 °F -38 °F (2013)
Degree Days  
Heating Degree Days 92    
Moisture  
Dew Point -27 °F    
Average Humidity 73    
Maximum Humidity 100    
Minimum Humidity 63    
Precipitation  
Precipitation 0.00 in - - ()
Sea Level Pressure  
Sea Level Pressure 29.99 in    
Wind  
Wind Speed 2 mph (West)    
Max Wind Speed 7 mph    
Max Gust Speed -    
Visibility 9 miles    
Events      
Averages and records for this station are not official NWS values.
T = Trace of Precipitation, MM = Missing Value Source: NWS Daily Summary

Daily Weather History Graph

Daily Weather History Graph

Search for Another Location

Airport or City:

Trip Planner

Search our weather history database for the weather conditions in past years. The results will help you decide how hot, cold, wet, or windy it might be!

Date:

Astronomy

Feb. 26, 2013 Rise Set
Actual Time 9:19 AM AKST 6:51 PM AKST
Civil Twilight 8:23 AM AKST 7:47 PM AKST
Nautical Twilight 7:21 AM AKST 8:50 PM AKST
Astronomical Twilight 6:16 AM AKST 9:55 PM AKST
Moon 9:26 PM AKST (2/26) 8:38 AM AKST (2/26)
Length of Visible Light 11h 23m
Length of Day
9h 31m
Full, 99% of the Moon is Illuminated
Feb 26
Full
Mar 4
Last Quarter
Mar 11
New
Mar 19
First Quarter
Mar 27
Full

Hourly Weather History & Observations

Time (AKST) Temp. Windchill Dew Point Humidity Pressure Visibility Wind Dir Wind Speed Gust Speed Precip Events Conditions
12:16 AM -27.4 °F -39.2 °F - N/A% 30.10 in 10.0 mi SSW 3.5 mph - N/A   Clear
12:36 AM -27.4 °F - - N/A% 30.10 in 10.0 mi Calm Calm - N/A   Clear
12:56 AM -27.4 °F - - N/A% 30.11 in 10.0 mi Calm Calm - N/A   Clear
1:16 AM -27.4 °F - - N/A% 30.11 in 10.0 mi Calm Calm - N/A   Clear
2:16 AM -29.2 °F - - N/A% 30.12 in 10.0 mi Calm Calm - N/A   Clear
2:56 AM -34.6 °F - - N/A% 30.13 in 10.0 mi Calm Calm - N/A   Clear
3:16 AM -32.8 °F -45.3 °F - N/A% 30.13 in 10.0 mi NNW 3.5 mph - N/A   Clear
3:56 AM -34.6 °F - - N/A% 30.13 in 10.0 mi Calm Calm - N/A   Clear
4:16 AM -34.6 °F -50.3 °F - N/A% 30.13 in 4.0 mi NE 4.6 mph - N/A   Clear
5:16 AM -36.4 °F - - N/A% 30.13 in 10.0 mi Calm Calm - N/A   Clear
7:36 AM -36.4 °F -54.8 °F - N/A% 30.11 in 9.0 mi NNW 5.8 mph - N/A   Clear
7:56 AM -36.4 °F -52.4 °F - N/A% 30.10 in 7.0 mi NNW 4.6 mph - N/A   Clear
8:16 AM -34.6 °F -47.4 °F - N/A% 30.10 in 9.0 mi NNW 3.5 mph - N/A   Clear
8:36 AM -34.6 °F -52.6 °F - N/A% 30.10 in 7.0 mi NNW 5.8 mph - N/A   Clear
8:56 AM -34.6 °F -52.6 °F - N/A% 30.09 in 9.0 mi North 5.8 mph - N/A   Clear
9:16 AM -34.6 °F - - N/A% 30.09 in 10.0 mi Calm Calm - N/A   Clear
9:36 AM -36.4 °F - - N/A% 30.08 in 7.0 mi Calm Calm - N/A   Clear
9:56 AM -36.4 °F - - N/A% 30.08 in 5.0 mi Calm Calm - N/A   Clear
10:36 AM -38.2 °F - - N/A% 30.07 in 1.2 mi Calm Calm - N/A   Clear
11:16 AM -34.6 °F -47.4 °F - N/A% 30.06 in 1.2 mi NW 3.5 mph - N/A   Clear
11:36 AM -32.8 °F - - N/A% 30.06 in 7.0 mi Calm Calm - N/A   Clear
12:36 PM -31.0 °F - - N/A% 30.05 in 8.0 mi Calm Calm - N/A   Clear
12:56 PM -31.0 °F - - N/A% 30.04 in 10.0 mi Calm Calm - N/A   Clear
2:36 PM -27.4 °F - - N/A% 30.00 in 10.0 mi Calm Calm - N/A   Clear
2:56 PM -25.6 °F - - N/A% 29.99 in 10.0 mi Calm Calm - N/A   Clear
3:16 PM -27.4 °F - - N/A% 29.99 in 10.0 mi Calm Calm - N/A   Clear
3:36 PM -22.0 °F - - N/A% 29.98 in 10.0 mi Calm Calm - N/A   Clear
3:56 PM -23.8 °F -35.0 °F -23.8 °F 100% 29.97 in 10.0 mi WSW 3.5 mph - N/A   Clear
4:16 PM -22.0 °F -33.0 °F - N/A% 29.96 in 10.0 mi WSW 3.5 mph - N/A   Clear
4:36 PM -20.2 °F - -29.2 °F 63% 29.95 in 10.0 mi Calm Calm - N/A   Clear
4:56 PM -20.2 °F - -27.4 °F 69% 29.95 in 10.0 mi Calm Calm - N/A   Clear
5:16 PM -20.2 °F - - N/A% 29.93 in 10.0 mi Calm Calm - N/A   Clear
5:36 PM -20.2 °F - -27.4 °F 69% 29.93 in 10.0 mi Calm Calm - N/A   Clear
5:56 PM -20.2 °F - -29.2 °F 63% 29.92 in 10.0 mi Calm Calm - N/A   Clear
6:16 PM -20.2 °F - - N/A% 29.91 in 10.0 mi Calm Calm - N/A   Clear
6:36 PM -20.2 °F -30.9 °F -29.2 °F 63% 29.90 in 10.0 mi WSW 3.5 mph - N/A   Clear
6:56 PM -20.2 °F -30.9 °F - N/A% 29.89 in 10.0 mi WSW 3.5 mph - N/A   Clear
7:16 PM -22.0 °F -33.0 °F - N/A% 29.88 in 10.0 mi West 3.5 mph - N/A   Clear
7:56 PM -23.8 °F - - N/A% 29.86 in 10.0 mi Calm Calm - N/A   Clear
8:36 PM -23.8 °F - - N/A% 29.84 in 10.0 mi Calm Calm - N/A   Clear
8:56 PM -23.8 °F - - N/A% 29.83 in 10.0 mi Calm Calm - N/A   Clear
9:16 PM -25.6 °F - - N/A% 29.82 in 10.0 mi Calm Calm - N/A   Clear
9:56 PM -23.8 °F - -29.2 °F 76% 29.81 in 10.0 mi Calm Calm - N/A   Clear
10:16 PM -16.6 °F - -20.2 °F 84% 29.80 in 10.0 mi Calm Calm - N/A   Clear
10:36 PM -27.4 °F -45.9 °F - N/A% 29.80 in 10.0 mi SSE 6.9 mph - N/A   Clear
10:56 PM -25.6 °F -37.1 °F - N/A% 29.80 in 10.0 mi SE 3.5 mph - N/A   Clear
11:16 PM -29.2 °F -44.0 °F - N/A% 29.79 in 10.0 mi WSW 4.6 mph - N/A   Clear
11:36 PM -27.4 °F -39.2 °F - N/A% 29.78 in 10.0 mi SW 3.5 mph - N/A   Clear
11:56 PM -27.4 °F -41.9 °F - N/A% 29.78 in 10.0 mi WSW 4.6 mph - N/A   Scattered Clouds